TimeAKDT,TemperatureF,Dew PointF,Humidity,Sea Level PressureIn,VisibilityMPH,Wind Direction,Wind SpeedMPH,Gust SpeedMPH,PrecipitationIn,Events,Conditions,WindDirDegrees,DateUTC
12:20 AM,6.8,6.8,100,30.23,1.0,ESE,3.5,-,N/A,,Mist,110,2013-04-01 08:20:00
12:24 AM,6.8,5.0,92,30.24,3.0,Calm,Calm,-,N/A,,Overcast,0,2013-04-01 08:24:00
12:38 AM,3.2,-0.4,85,30.23,1.8,Calm,Calm,-,N/A,,Overcast,0,2013-04-01 08:38:00
12:53 AM,3.0,1.0,91,30.25,1.5,Calm,Calm,-,N/A,,Overcast,0,2013-04-01 08:53:00
1:13 AM,1.4,-0.4,92,30.23,0.8,Calm,Calm,-,N/A,,Mist,0,2013-04-01 09:13:00
1:53 AM,-2.0,-4.0,91,30.22,1.2,Calm,Calm,-,N/A,,Overcast,0,2013-04-01 09:53:00
2:11 AM,-2.2,-4.0,92,30.22,2.5,Calm,Calm,-,N/A,,Overcast,0,2013-04-01 10:11:00
2:28 AM,-2.2,-5.8,85,30.23,1.5,Calm,Calm,-,N/A,,Mostly Cloudy,0,2013-04-01 10:28:00
2:33 AM,-4.0,-5.8,92,30.22,3.0,Calm,Calm,-,N/A,,Mostly Cloudy,0,2013-04-01 10:33:00
2:39 AM,-4.0,-7.6,85,30.22,1.8,Calm,Calm,-,N/A,,Mostly Cloudy,0,2013-04-01 10:39:00
2:45 AM,-4.0,-7.6,85,30.22,3.0,Calm,Calm,-,N/A,,Mostly Cloudy,0,2013-04-01 10:45:00
2:53 AM,-5.1,-8.0,87,30.22,10.0,Calm,Calm,-,N/A,,Partly Cloudy,0,2013-04-01 10:53:00
3:53 AM,-4.0,-7.1,87,30.21,10.0,Calm,Calm,-,N/A,,Clear,0,2013-04-01 11:53:00
4:50 AM,-5.8,-9.4,84,30.20,10.0,Calm,Calm,-,N/A,,Scattered Clouds,0,2013-04-01 12:50:00
4:53 AM,-5.1,-9.0,83,30.21,10.0,Calm,Calm,-,N/A,,Mostly Cloudy,0,2013-04-01 12:53:00
5:53 AM,-2.0,-6.0,83,30.21,10.0,Calm,Calm,-,N/A,,Overcast,0,2013-04-01 13:53:00
6:20 AM,-2.2,-5.8,85,30.20,10.0,Calm,Calm,-,N/A,,Scattered Clouds,0,2013-04-01 14:20:00
6:53 AM,-5.1,-8.0,87,30.20,10.0,Calm,Calm,-,N/A,,Partly Cloudy,0,2013-04-01 14:53:00
7:53 AM,-5.1,-9.0,83,30.19,10.0,Calm,Calm,-,N/A,,Scattered Clouds,0,2013-04-01 15:53:00
8:53 AM,-2.0,-6.0,83,30.19,10.0,Calm,Calm,-,N/A,,Overcast,0,2013-04-01 16:53:00
9:53 AM,10.9,9.0,92,30.18,10.0,East,6.9,-,N/A,,Overcast,80,2013-04-01 17:53:00
10:05 AM,12.2,10.4,92,30.17,10.0,ENE,6.9,-,N/A,,Overcast,70,2013-04-01 18:05:00
10:53 AM,14.0,10.9,88,30.14,10.0,ENE,4.6,-,N/A,,Overcast,70,2013-04-01 18:53:00
11:53 AM,15.1,12.9,91,30.18,10.0,ENE,5.8,-,N/A,,Overcast,70,2013-04-01 19:53:00
12:20 PM,15.8,12.2,86,30.17,10.0,ENE,4.6,-,N/A,,Scattered Clouds,60,2013-04-01 20:20:00
12:53 PM,16.0,12.9,88,30.18,10.0,ENE,4.6,-,N/A,,Scattered Clouds,70,2013-04-01 20:53:00
1:53 PM,17.1,12.9,84,30.17,10.0,East,6.9,-,N/A,,Clear,80,2013-04-01 21:53:00
2:53 PM,16.0,12.9,88,30.16,10.0,East,8.1,-,N/A,,Partly Cloudy,100,2013-04-01 22:53:00
3:24 PM,15.8,12.2,86,30.15,10.0,East,8.1,-,N/A,,Scattered Clouds,90,2013-04-01 23:24:00
3:53 PM,16.0,12.0,84,30.16,10.0,East,10.4,-,N/A,,Scattered Clouds,90,2013-04-01 23:53:00
4:53 PM,15.1,12.9,91,30.15,9.0,ESE,9.2,-,N/A,,Mostly Cloudy,110,2013-04-02 00:53:00
5:53 PM,16.0,12.9,88,30.15,10.0,East,6.9,-,N/A,,Scattered Clouds,90,2013-04-02 01:53:00
6:53 PM,16.0,12.9,88,30.14,10.0,East,4.6,-,N/A,,Scattered Clouds,100,2013-04-02 02:53:00
7:53 PM,14.0,12.0,92,30.14,10.0,ESE,6.9,-,N/A,,Scattered Clouds,110,2013-04-02 03:53:00
8:53 PM,12.9,10.0,88,30.14,10.0,East,5.8,-,N/A,,Scattered Clouds,90,2013-04-02 04:53:00
9:53 PM,10.0,6.1,84,30.12,10.0,Calm,Calm,-,N/A,,Scattered Clouds,0,2013-04-02 05:53:00
10:53 PM,8.1,5.0,87,30.14,10.0,Calm,Calm,-,N/A,,Partly Cloudy,0,2013-04-02 06:53:00
11:53 PM,3.9,1.0,88,30.13,10.0,Calm,Calm,-,N/A,,Clear,0,2013-04-02 07:53:00